Flag for Russia Weather past 2 weeks in Sochi, Russia

Now
68 °F

More clouds than sun.


Feels Like: 68 °F
Forecast: 64 / 78 °F
Wind: 3 mph from Northeast

Location: Adler

Current Time: Sep 21, 2014 at 4:53:14 PM

Latest Report: Sep 21, 2014 at 4:30 PM


Visibility: N/A

Pressure: 29.92 "Hg

Humidity: 73%

Dew point: 59 °F

Location of SochiLocation

Historic Weather in Sochi — Graph

°F

Sochi temperature yesterday

Maximum temperature yesterday: 73 °F (at 4:30 PM)
Minimum temperature yesterday: 63 °F (at 7:30 AM)
Average temperature yesterday: 66 °F

Past Weeks' High & Low Weather Summary

 TemperatureHumidityPressure
High86 °F (Sep 6, 3:30 PM)94% (Sep 10, 1:00 AM)30.01 "Hg (Sep 10, 1:00 AM)
Low63 °F (Sep 14, 6:30 AM)43% (Sep 6, 4:30 PM)29.62 "Hg (Sep 6, 6:30 PM)
Average71 °F76%29.88 "Hg
* Reported Sep 6 3:00 PM — Sep 21 3:30 PM, Sochi, Weather by CustomWeather, © 2014

Note: Actual official high and low records may vary slightly from our data, if they occured in-between our weather recording intervals... More about our weather records

Advertising

Sochi weather history for previous 24 hours

 ConditionsComfort  
Time TempWeatherWind HumidityBarometerVisibility
3:30 PM
Sep 21
68 °FMostly cloudy.3 mph78%29.92 "HgN/A
3:00 PM66 °FOvercast.1 mph88%29.92 "HgN/A
2:30 PM64 °FSprinkles. Overcast.3 mph88%29.92 "Hg1 mi
2:00 PM66 °FSprinkles. Overcast.3 mph83%29.92 "Hg1 mi
1:30 PM68 °FSprinkles. Mostly cloudy.6 mph83%29.92 "Hg6 mi
1:00 PM68 °FMostly cloudy.10 mph78%29.92 "HgN/A
12:30 PM70 °FMostly cloudy.8 mph73%29.92 "HgN/A
12:00 PM70 °FPartly sunny.8 mph73%29.92 "HgN/A
11:30 AM68 °FPartly sunny.6 mph78%29.92 "HgN/A
11:00 AM68 °FPartly sunny.3 mph83%29.92 "HgN/A
10:30 AM66 °FMostly cloudy.1 mph88%29.92 "HgN/A
10:00 AM66 °FSprinkles. Mostly cloudy.3 mph83%29.92 "Hg6 mi
9:30 AM66 °FBroken clouds.No wind83%29.92 "Hg6 mi
9:00 AM64 °FBroken clouds.3 mph88%29.89 "HgN/A
8:30 AM64 °FBroken clouds.3 mph88%29.89 "HgN/A
8:00 AM64 °FPartly cloudy.6 mph88%29.89 "HgN/A
7:30 AM63 °FMostly cloudy.3 mph94%29.89 "HgN/A
7:00 AM63 °FSprinkles. Mostly cloudy.3 mph94%29.89 "HgN/A
6:30 AM63 °FSprinkles. Mostly cloudy.3 mph94%29.89 "HgN/A
6:00 AM64 °FPassing clouds.3 mph88%29.89 "HgN/A
5:30 AM63 °FPassing clouds.6 mph94%29.89 "HgN/A
5:00 AM63 °FPassing clouds.3 mph94%29.89 "HgN/A
4:30 AM64 °FPassing clouds.6 mph88%29.89 "HgN/A
4:00 AM64 °FPassing clouds.6 mph88%29.92 "HgN/A
3:30 AM64 °FPassing clouds.6 mph88%29.92 "HgN/A
3:00 AM64 °FPassing clouds.6 mph88%29.92 "HgN/A
2:30 AM63 °FPassing clouds.6 mph94%29.92 "HgN/A
2:00 AM63 °FPassing clouds.6 mph94%29.92 "HgN/A
1:30 AM64 °FPassing clouds.6 mph88%29.92 "HgN/A
1:00 AM63 °FPassing clouds.6 mph94%29.92 "HgN/A
12:30 AM64 °FPassing clouds.6 mph88%29.92 "HgN/A
12:00 AM63 °FPassing clouds.3 mph94%29.92 "HgN/A
11:30 PM
Sep 20
64 °FPassing clouds.3 mph88%29.92 "HgN/A
11:00 PM64 °FPartly cloudy.6 mph88%29.92 "HgN/A
10:30 PM63 °FPartly cloudy.6 mph94%29.95 "HgN/A
10:00 PM64 °FPassing clouds.6 mph88%29.95 "HgN/A
9:30 PM64 °FPassing clouds.3 mph88%29.95 "HgN/A
5:30 PM70 °FPartly sunny.6 mph73%29.92 "HgN/A
5:00 PM72 °FPartly sunny.8 mph69%29.92 "HgN/A
4:30 PM73 °FPartly sunny.6 mph65%29.92 "HgN/A
4:00 PM72 °FPartly sunny.3 mph69%29.92 "HgN/A
Weather by CustomWeather, © 2014

See weather overviewHow to use our weather pages